Crossville, TN

12:06 PM CDT on May 26, 2017 (GMT -0500)
Crossville Memorial-Whitson

Weather History for KCSV - December, 2012

Change the Weather History Date:

Saturday, December 8, 2012

  Actual Average Record
Temperature  
Mean Temperature 60 °F 40 °F  
Max Temperature 66 °F 49 °F 71 °F (1978)
Min Temperature 54 °F 32 °F 8 °F (2006)
Degree Days  
Heating Degree Days 5    
Month to date heating degree days 78  
Since 1 July heating degree days 1043  
Cooling Degree Days 0    
Month to date cooling degree days 0  
Year to date cooling degree days 1156  
Growing Degree Days 9 (Base 50)    
Moisture  
Dew Point 52 °F    
Average Humidity 77    
Maximum Humidity 93    
Minimum Humidity 60    
Precipitation  
Precipitation T in 0.18 in 1.92 in (2009)
Month to date precipitation 0.05 1.41  
Year to date precipitation 41.82 51.55  
Sea Level Pressure  
Sea Level Pressure 29.97 in    
Wind  
Wind Speed 4 mph (SSW)    
Max Wind Speed 12 mph    
Max Gust Speed 18 mph    
Visibility 10 miles    
Events      
T = Trace of Precipitation, MM = Missing Value Source: NWS Daily Summary

Daily Weather History Graph

Daily Weather History Graph

Search for Another Location

Airport or City:

Trip Planner

Search our weather history database for the weather conditions in past years. The results will help you decide how hot, cold, wet, or windy it might be!

Date:

Astronomy

Dec. 08, 2012 Rise Set
Actual Time 6:38 AM CST 4:26 PM CST
Civil Twilight 6:10 AM CST 4:54 PM CST
Nautical Twilight 5:38 AM CST 5:26 PM CST
Astronomical Twilight 5:07 AM CST 5:57 PM CST
Moon 1:10 AM CST (12/8) 12:48 PM CST (12/8)
Length of Visible Light 10h 44m
Length of Day
9h 47m
Waning Crescent, 28% of the Moon is Illuminated
Dec 8
Waning Crescent
Dec 13
New
Dec 19
First Quarter
Dec 28
Full
Jan 4
Last Quarter

Hourly Weather History & Observations

Time (CST) Temp. Dew Point Humidity Pressure Visibility Wind Dir Wind Speed Gust Speed Precip Events Conditions
12:53 AM 55.0 °F 48.0 °F 77% 29.95 in 10.0 mi South 3.5 mph - N/A   Overcast
1:53 AM 55.0 °F 48.0 °F 77% 29.95 in 10.0 mi South 4.6 mph - N/A   Overcast
2:53 AM 55.0 °F 48.0 °F 77% 29.95 in 10.0 mi Calm Calm - 0.00 in   Overcast
3:53 AM 55.9 °F 48.9 °F 77% 29.96 in 10.0 mi SSW 5.8 mph - N/A   Overcast
4:28 AM 55.4 °F 48.2 °F 77% 29.98 in 10.0 mi Variable 3.5 mph - N/A   Scattered Clouds
4:43 AM 55.4 °F 48.2 °F 77% 29.98 in 10.0 mi SSW 5.8 mph - N/A   Mostly Cloudy
5:12 AM 55.4 °F 48.2 °F 77% 29.98 in 10.0 mi South 8.1 mph - N/A   Scattered Clouds
5:53 AM 55.0 °F 50.0 °F 83% 29.96 in 10.0 mi Variable 6.9 mph - N/A   Mostly Cloudy
6:53 AM 54.0 °F 50.0 °F 86% 29.97 in 9.0 mi South 4.6 mph - N/A   Mostly Cloudy
7:53 AM 55.0 °F 51.1 °F 86% 29.98 in 9.0 mi Calm Calm - N/A   Mostly Cloudy
8:06 AM 55.4 °F 51.8 °F 88% 29.99 in 9.0 mi Variable 3.5 mph - N/A   Scattered Clouds
8:53 AM 59.0 °F 52.0 °F 78% 29.97 in 10.0 mi Variable 3.5 mph - N/A   Clear
9:53 AM 61.0 °F 52.0 °F 72% 29.97 in 10.0 mi Variable 6.9 mph - N/A   Clear
10:53 AM 63.0 °F 52.0 °F 67% 29.96 in 10.0 mi South 8.1 mph - N/A   Scattered Clouds
11:53 AM 64.9 °F 50.0 °F 58% 29.94 in 10.0 mi West 9.2 mph 16.1 mph N/A   Mostly Cloudy
12:53 PM 64.0 °F 52.0 °F 65% 29.94 in 10.0 mi West 9.2 mph - N/A   Overcast
1:53 PM 63.0 °F 52.0 °F 67% 29.93 in 10.0 mi West 5.8 mph - N/A   Partly Cloudy
2:53 PM 63.0 °F 53.1 °F 70% 29.94 in 10.0 mi West 4.6 mph - N/A   Clear
3:53 PM 63.0 °F 53.1 °F 70% 29.94 in 10.0 mi Calm Calm - N/A   Scattered Clouds
4:18 PM 60.8 °F 53.6 °F 77% 29.97 in 10.0 mi Calm Calm - N/A   Mostly Cloudy
4:53 PM 60.1 °F 52.0 °F 75% 29.95 in 10.0 mi Calm Calm - N/A   Mostly Cloudy
5:53 PM 59.0 °F 50.0 °F 72% 29.96 in 10.0 mi South 3.5 mph - N/A   Mostly Cloudy
6:53 PM 57.9 °F 50.0 °F 75% 29.99 in 10.0 mi South 3.5 mph - N/A   Overcast
7:53 PM 57.0 °F 51.1 °F 81% 29.98 in 10.0 mi South 4.6 mph - N/A   Scattered Clouds
8:53 PM 55.9 °F 52.0 °F 87% 29.98 in 9.0 mi Calm Calm - N/A   Clear
9:53 PM 55.9 °F 53.1 °F 90% 29.98 in 7.0 mi South 4.6 mph - N/A   Scattered Clouds
10:03 PM 57.2 °F 53.6 °F 88% 30.01 in 8.0 mi South 6.9 mph - N/A   Mostly Cloudy
10:27 PM 57.2 °F 53.6 °F 88% 30.02 in 9.0 mi South 5.8 mph - N/A   Mostly Cloudy
10:42 PM 57.2 °F 53.6 °F 88% 30.02 in 9.0 mi South 4.6 mph - N/A   Mostly Cloudy
10:53 PM 57.9 °F 55.0 °F 90% 29.99 in 10.0 mi South 6.9 mph - N/A   Overcast
11:12 PM 57.2 °F 55.4 °F 94% 30.02 in 10.0 mi South 6.9 mph - N/A   Overcast
11:28 PM 57.2 °F 55.4 °F 94% 30.02 in 10.0 mi South 6.9 mph - N/A   Scattered Clouds
11:38 PM 59.0 °F 55.4 °F 88% 30.02 in 10.0 mi South 5.8 mph - N/A   Mostly Cloudy
11:53 PM 59.0 °F 55.0 °F 87% 29.98 in 10.0 mi South 4.6 mph - N/A   Mostly Cloudy